Time,TemperatureF,DewpointF,PressureIn,WindDirection,WindDirectionDegrees,WindSpeedMPH,WindSpeedGustMPH,Humidity,HourlyPrecipIn,Conditions,Clouds,dailyrainin,SolarRadiationWatts/m^2,SoftwareType,DateUTC
2013-05-20 00:02:00,72.0,65.0,-100.00,East,94,9.0,15.0,80,0.00,,,0.26,369.000000,,2013-05-20 00:02:00,
2013-05-20 00:11:00,72.0,64.0,-100.00,ESE,108,7.0,16.0,75,0.00,,,-99.99,292.000000,,2013-05-20 00:11:00,
2013-05-20 00:42:00,72.0,64.0,-100.00,ESE,108,7.0,16.0,75,0.00,,,-99.99,292.000000,,2013-05-20 00:42:00,
2013-05-20 00:52:00,72.0,64.0,-100.00,ESE,108,7.0,16.0,75,0.00,,,-99.99,292.000000,,2013-05-20 00:52:00,
2013-05-20 01:01:00,72.0,64.0,-100.00,ESE,108,7.0,16.0,75,0.00,,,-99.99,292.000000,,2013-05-20 01:01:00,
2013-05-20 01:11:00,68.0,64.0,-100.00,SSE,148,4.0,15.0,86,0.00,,,0.26,105.000000,,2013-05-20 01:11:00,
2013-05-20 01:32:00,68.0,64.0,-100.00,SSE,148,4.0,15.0,86,0.00,,,0.26,105.000000,,2013-05-20 01:32:00,
2013-05-20 01:42:00,68.0,64.0,-100.00,SSE,148,4.0,15.0,86,0.00,,,0.26,105.000000,,2013-05-20 01:42:00,
2013-05-20 01:52:00,68.0,64.0,-100.00,SSE,148,4.0,15.0,86,0.00,,,0.26,105.000000,,2013-05-20 01:52:00,
2013-05-20 02:02:00,68.0,64.0,-100.00,SSE,148,4.0,15.0,86,0.00,,,0.26,105.000000,,2013-05-20 02:02:00,
2013-05-20 02:11:00,60.0,57.0,-100.00,WSW,258,10.0,37.0,89,0.03,,,0.29,3.000000,,2013-05-20 02:11:00,
2013-05-20 02:32:00,60.0,57.0,-100.00,WSW,258,10.0,37.0,89,0.03,,,0.29,3.000000,,2013-05-20 02:32:00,
2013-05-20 03:11:00,59.0,58.0,-100.00,SSE,154,1.0,13.0,95,0.00,,,0.29,0.000000,,2013-05-20 03:11:00,
2013-05-20 03:33:00,59.0,58.0,-100.00,SSE,154,1.0,13.0,95,0.00,,,0.29,0.000000,,2013-05-20 03:33:00,
2013-05-20 03:43:00,59.0,58.0,-100.00,SSE,154,1.0,13.0,95,0.00,,,0.29,0.000000,,2013-05-20 03:43:00,
2013-05-20 03:52:00,59.0,58.0,-100.00,SSE,154,1.0,13.0,95,0.00,,,0.29,0.000000,,2013-05-20 03:52:00,
2013-05-20 04:03:00,59.0,58.0,-100.00,SSE,154,1.0,13.0,95,0.00,,,0.29,0.000000,,2013-05-20 04:03:00,
2013-05-20 04:11:00,59.0,59.0,-100.00,South,184,2.0,6.0,99,0.00,,,0.29,0.000000,,2013-05-20 04:11:00,
2013-05-20 04:33:00,59.0,59.0,-100.00,South,184,2.0,6.0,99,0.00,,,0.29,0.000000,,2013-05-20 04:33:00,
2013-05-20 04:43:00,59.0,59.0,-100.00,South,184,2.0,6.0,99,0.00,,,0.29,0.000000,,2013-05-20 04:43:00,
2013-05-20 04:53:00,59.0,59.0,-100.00,South,184,2.0,6.0,99,0.00,,,0.29,0.000000,,2013-05-20 04:53:00,
2013-05-20 05:02:00,59.0,59.0,-100.00,South,184,2.0,6.0,99,0.00,,,0.29,0.000000,,2013-05-20 05:02:00,
2013-05-20 05:11:00,59.0,57.0,-100.00,NE,45,6.0,10.0,94,0.00,,,0.29,0.000000,,2013-05-20 05:11:00,
2013-05-20 05:32:00,59.0,57.0,-100.00,NE,45,6.0,10.0,94,0.00,,,0.29,0.000000,,2013-05-20 05:32:00,
2013-05-20 05:42:00,59.0,57.0,-100.00,NE,45,6.0,10.0,94,0.00,,,0.29,0.000000,,2013-05-20 05:42:00,
2013-05-20 05:52:00,59.0,57.0,-100.00,NE,45,6.0,10.0,94,0.00,,,0.29,0.000000,,2013-05-20 05:52:00,
2013-05-20 06:01:00,59.0,57.0,-100.00,NE,45,6.0,10.0,94,0.00,,,0.29,0.000000,,2013-05-20 06:01:00,
2013-05-20 06:11:00,58.0,57.0,-100.00,South,187,3.0,17.0,98,0.00,,,0.21,0.000000,,2013-05-20 06:11:00,
2013-05-20 06:32:00,58.0,57.0,-100.00,South,187,3.0,17.0,98,0.00,,,0.21,0.000000,,2013-05-20 06:32:00,
2013-05-20 06:42:00,58.0,57.0,-100.00,South,187,3.0,17.0,98,0.00,,,0.21,0.000000,,2013-05-20 06:42:00,
2013-05-20 06:52:00,58.0,57.0,-100.00,South,187,3.0,17.0,98,0.00,,,0.21,0.000000,,2013-05-20 06:52:00,
2013-05-20 07:02:00,58.0,57.0,-100.00,South,187,3.0,17.0,98,0.00,,,0.21,0.000000,,2013-05-20 07:02:00,
2013-05-20 07:11:00,58.0,57.0,-100.00,SW,214,2.0,7.0,96,0.00,,,0.16,0.000000,,2013-05-20 07:11:00,
2013-05-20 07:42:00,58.0,57.0,-100.00,SW,214,2.0,7.0,96,0.00,,,0.16,0.000000,,2013-05-20 07:42:00,
2013-05-20 07:52:00,58.0,57.0,-100.00,SW,214,2.0,7.0,96,0.00,,,0.16,0.000000,,2013-05-20 07:52:00,
2013-05-20 08:01:00,58.0,57.0,-100.00,SW,214,2.0,7.0,96,0.00,,,0.16,0.000000,,2013-05-20 08:01:00,
2013-05-20 08:11:00,58.0,57.0,-100.00,East,101,3.0,6.0,96,0.00,,,0.13,0.000000,,2013-05-20 08:11:00,
2013-05-20 08:42:00,58.0,57.0,-100.00,East,101,3.0,6.0,96,0.00,,,0.13,0.000000,,2013-05-20 08:42:00,
2013-05-20 08:52:00,58.0,57.0,-100.00,East,101,3.0,6.0,96,0.00,,,0.13,0.000000,,2013-05-20 08:52:00,
2013-05-20 09:02:00,58.0,57.0,-100.00,East,101,3.0,6.0,96,0.00,,,0.13,0.000000,,2013-05-20 09:02:00,
2013-05-20 09:11:00,56.0,56.0,-100.00,ESE,113,4.0,7.0,100,0.00,,,0.08,0.000000,,2013-05-20 09:11:00,
2013-05-20 09:33:00,56.0,56.0,-100.00,ESE,113,4.0,7.0,100,0.00,,,0.08,0.000000,,2013-05-20 09:33:00,
2013-05-20 09:43:00,56.0,56.0,-100.00,ESE,113,4.0,7.0,100,0.00,,,0.08,0.000000,,2013-05-20 09:43:00,
2013-05-20 09:53:00,56.0,56.0,-100.00,ESE,113,4.0,7.0,100,0.00,,,0.08,0.000000,,2013-05-20 09:53:00,
2013-05-20 10:03:00,56.0,56.0,-100.00,ESE,113,4.0,7.0,100,0.00,,,0.08,0.000000,,2013-05-20 10:03:00,
2013-05-20 10:11:00,58.0,57.0,-100.00,SW,219,8.0,11.0,97,0.00,,,0.08,0.000000,,2013-05-20 10:11:00,
2013-05-20 10:33:00,58.0,57.0,-100.00,SW,219,8.0,11.0,97,0.00,,,0.08,0.000000,,2013-05-20 10:33:00,
2013-05-20 10:42:00,58.0,57.0,-100.00,SW,219,8.0,11.0,97,0.00,,,0.08,0.000000,,2013-05-20 10:42:00,
2013-05-20 10:52:00,58.0,57.0,-100.00,SW,219,8.0,11.0,97,0.00,,,0.08,0.000000,,2013-05-20 10:52:00,
2013-05-20 11:02:00,58.0,57.0,-100.00,SW,219,8.0,11.0,97,0.00,,,0.08,0.000000,,2013-05-20 11:02:00,
2013-05-20 11:11:00,57.0,56.0,-100.00,North,6,3.0,8.0,96,0.00,,,-99.99,1.000000,,2013-05-20 11:11:00,
2013-05-20 11:32:00,57.0,56.0,-100.00,North,6,3.0,8.0,96,0.00,,,-99.99,1.000000,,2013-05-20 11:32:00,
2013-05-20 11:42:00,57.0,56.0,-100.00,North,6,3.0,8.0,96,0.00,,,-99.99,1.000000,,2013-05-20 11:42:00,
2013-05-20 11:52:00,57.0,56.0,-100.00,North,6,3.0,8.0,96,0.00,,,-99.99,1.000000,,2013-05-20 11:52:00,
2013-05-20 12:01:00,57.0,56.0,-100.00,North,6,3.0,8.0,96,0.00,,,-99.99,1.000000,,2013-05-20 12:01:00,
2013-05-20 12:11:00,57.0,56.0,-100.00,West,280,3.0,7.0,97,0.00,,,0.08,13.000000,,2013-05-20 12:11:00,
2013-05-20 12:32:00,57.0,56.0,-100.00,West,280,3.0,7.0,97,0.00,,,0.08,13.000000,,2013-05-20 12:32:00,
2013-05-20 12:42:00,57.0,56.0,-100.00,West,280,3.0,7.0,97,0.00,,,0.08,13.000000,,2013-05-20 12:42:00,
2013-05-20 12:52:00,57.0,56.0,-100.00,West,280,3.0,7.0,97,0.00,,,0.08,13.000000,,2013-05-20 12:52:00,
2013-05-20 13:01:00,57.0,56.0,-100.00,West,280,3.0,7.0,97,0.00,,,0.08,13.000000,,2013-05-20 13:01:00,
2013-05-20 14:11:00,61.0,56.0,-100.00,SW,235,12.0,16.0,85,-99.99,,,0.09,176.000000,,2013-05-20 14:11:00,
2013-05-20 14:32:00,61.0,56.0,-100.00,SW,235,12.0,16.0,85,-99.99,,,0.09,176.000000,,2013-05-20 14:32:00,
2013-05-20 14:42:00,61.0,56.0,-100.00,SW,235,12.0,16.0,85,-99.99,,,0.09,176.000000,,2013-05-20 14:42:00,
2013-05-20 14:52:00,61.0,56.0,-100.00,SW,235,12.0,16.0,85,-99.99,,,0.09,176.000000,,2013-05-20 14:52:00,
2013-05-20 15:01:00,61.0,56.0,-100.00,SW,235,12.0,16.0,85,-99.99,,,0.09,176.000000,,2013-05-20 15:01:00,
2013-05-20 15:11:00,62.0,56.0,-100.00,SW,226,12.0,20.0,82,0.00,,,0.08,313.000000,,2013-05-20 15:11:00,
2013-05-20 15:42:00,62.0,56.0,-100.00,SW,226,12.0,20.0,82,0.00,,,0.08,313.000000,,2013-05-20 15:42:00,
2013-05-20 15:53:00,62.0,56.0,-100.00,SW,226,12.0,20.0,82,0.00,,,0.08,313.000000,,2013-05-20 15:53:00,
2013-05-20 16:03:00,62.0,56.0,-100.00,SW,226,12.0,20.0,82,0.00,,,0.08,313.000000,,2013-05-20 16:03:00,
2013-05-20 16:11:00,64.0,56.0,-100.00,SW,230,16.0,24.0,75,0.00,,,0.08,341.000000,,2013-05-20 16:11:00,
2013-05-20 16:33:00,64.0,56.0,-100.00,SW,230,16.0,24.0,75,0.00,,,0.08,341.000000,,2013-05-20 16:33:00,
2013-05-20 16:42:00,64.0,56.0,-100.00,SW,230,16.0,24.0,75,0.00,,,0.08,341.000000,,2013-05-20 16:42:00,
2013-05-20 16:53:00,64.0,56.0,-100.00,SW,230,16.0,24.0,75,0.00,,,0.08,341.000000,,2013-05-20 16:53:00,
2013-05-20 17:02:00,64.0,56.0,-100.00,SW,230,16.0,24.0,75,0.00,,,0.08,341.000000,,2013-05-20 17:02:00,
2013-05-20 17:11:00,65.0,55.0,-100.00,SSW,210,17.0,24.0,71,0.00,,,0.08,433.000000,,2013-05-20 17:11:00,
2013-05-20 17:45:00,65.0,55.0,-100.00,SSW,210,17.0,24.0,71,0.00,,,0.08,433.000000,,2013-05-20 17:45:00,
2013-05-20 17:53:00,65.0,55.0,-100.00,SSW,210,17.0,24.0,71,0.00,,,0.08,433.000000,,2013-05-20 17:53:00,
2013-05-20 18:02:00,65.0,55.0,-100.00,SSW,210,17.0,24.0,71,0.00,,,0.08,433.000000,,2013-05-20 18:02:00,
2013-05-20 18:11:00,66.0,56.0,-100.00,SSW,212,15.0,25.0,69,0.00,,,0.07,421.000000,,2013-05-20 18:11:00,
2013-05-20 18:33:00,66.0,56.0,-100.00,SSW,212,15.0,25.0,69,0.00,,,0.07,421.000000,,2013-05-20 18:33:00,
2013-05-20 18:42:00,66.0,56.0,-100.00,SSW,212,15.0,25.0,69,0.00,,,0.07,421.000000,,2013-05-20 18:42:00,
2013-05-20 18:55:00,66.0,56.0,-100.00,SSW,212,15.0,25.0,69,0.00,,,0.07,421.000000,,2013-05-20 18:55:00,
2013-05-20 19:04:00,66.0,56.0,-100.00,SSW,212,15.0,25.0,69,0.00,,,0.07,421.000000,,2013-05-20 19:04:00,
2013-05-20 20:11:00,67.0,55.0,-100.00,SSW,205,14.0,21.0,65,-99.99,,,0.06,221.000000,,2013-05-20 20:11:00,
2013-05-20 20:32:00,67.0,55.0,-100.00,SSW,205,14.0,21.0,65,-99.99,,,0.06,221.000000,,2013-05-20 20:32:00,
2013-05-20 20:42:00,67.0,55.0,-100.00,SSW,205,14.0,21.0,65,-99.99,,,0.06,221.000000,,2013-05-20 20:42:00,
2013-05-20 20:52:00,67.0,55.0,-100.00,SSW,205,14.0,21.0,65,-99.99,,,0.06,221.000000,,2013-05-20 20:52:00,
2013-05-20 21:01:00,67.0,55.0,-100.00,SSW,205,14.0,21.0,65,-99.99,,,0.06,221.000000,,2013-05-20 21:01:00,
2013-05-20 22:11:00,68.0,57.0,-100.00,SW,236,10.0,18.0,67,-99.99,,,0.04,178.000000,,2013-05-20 22:11:00,
2013-05-20 22:42:00,68.0,57.0,-100.00,SW,236,10.0,18.0,67,-99.99,,,0.04,178.000000,,2013-05-20 22:42:00,
2013-05-20 22:52:00,68.0,57.0,-100.00,SW,236,10.0,18.0,67,-99.99,,,0.04,178.000000,,2013-05-20 22:52:00,
2013-05-20 23:03:00,68.0,57.0,-100.00,SW,236,10.0,18.0,67,-99.99,,,0.04,178.000000,,2013-05-20 23:03:00,
2013-05-20 23:11:00,69.0,55.0,-100.00,SW,222,12.0,21.0,61,0.00,,,0.04,109.000000,,2013-05-20 23:11:00,
2013-05-20 23:42:00,69.0,55.0,-100.00,SW,222,12.0,21.0,61,0.00,,,0.04,109.000000,,2013-05-20 23:42:00,
2013-05-20 23:53:00,69.0,55.0,-100.00,SW,222,12.0,21.0,61,0.00,,,0.04,109.000000,,2013-05-20 23:53:00,